Погода в Терентьевской

Россия / Кемеровская область (Кузбасс)     54°03′58″N   86°52′10″E
темп.,
°C
ветер,
м/с
пор.,
м/с
влажн.,
%
обл.,
%
осадки,
мм/ч
давл.,
гПа
погр.,
м
18 мая, вт
вт1801:00+12юз227698 0.0 101314
04:00+11юз378971 0.1 1011135
07:00+14ююз51487100 1.3 1008482
10:00+17юз81880100 2.4 1003734
13:00+23з8135466 2.4 10021757
16:00+18ссз7127151 1.3 1004735
19:00+18ссз58660 1.6 10051082
22:00+13всв228187 0.0 100524
19 мая, ср
ср1901:00+12ю118383 0.0 100512
04:00+12ю2280100 0.0 100251
07:00+13юз2792100 0.8 1000388
10:00+10ссз61187100 1.1 1002572
13:00+11ссз8106988 1.1 10031039
16:00+12с81153100 0.0 10051685
19:00+12с8953100 0.0 10071574
22:00+7ссз496562 0.0 1010271
20 мая, чт
чт2001:00+5с61356100 0.0 1010443
04:00+4ссз5961100 0.0 1010445
07:00+3ссз61059100 0.0 1011487
10:00+6с810395 0.0 10111972
13:00+7ссз7737100 0.0 10122370
16:00+8ссз7742100 0.1 10142343
19:00+6с78548 0.1 10161297
22:00+2зсз226566 0.1 101835
21 мая, пт
пт2101:00+1сз487714 0.1 1020204
04:000зсз3799100 1.6 1020235
07:00+1с3496100 2.3 1022350
10:00+3с238497 0.1 1025561
13:00+6с236177 0.2 10261272
16:00+9сз22495 0.0 10261352
19:00+10сз235133 0.0 10261184
22:00+6ююз3269100 0.0 102829
22 мая, сб
сб2201:00+4ююз3773100 0.0 1028133
04:00+4юз41169100 0.0 1028244
07:00+5юз4107098 0.0 1027344
10:00+9юз6955100 0.0 1026732
13:00+8зюз71061100 0.1 10251429
16:00+8зюз71174100 0.2 10241139
19:00+6юз61288100 1.3 1024732
22:00+6юз61289100 0.1 1024552